Location: Saint-Usage
(47.1052°N, 5.2587°E)
Time: 02:34:05
(UTC+01:00)

NOAA 19 - Pass Details

Date: 07 December 2021
Orbit: 841 x 860 km, 99.2° (Epoch: 17 January)

Event Time Altitude Azimuth Distance (km) Brightness Sun altitude
Rises 20:40:07 0° 209° (SSW) 3,385 8.6 -38.2°
Reaches altitude 10° 20:43:14 10° 227° (SW) 2,457 8.0 -38.8°
Maximum altitude 20:46:53 18° 270° (W) 1,955 7.6 -39.4°
Drops below altitude 10° 20:50:34 10° 312° (NW) 2,475 8.1 -40.0°
Sets 20:53:45 0° 331° (NNW) 3,420 8.8 -40.5°
